COSMOS 1275 DEB

Satellite information

Favourite Embed

Satellite Type and Status

DEBRISIN ORBIT

Key statistics

Satellite COSMOS 1275 DEB at a glance.

Uptime

16264

Days in orbit

Revolutions

≈ 14.0

Per day

Orbit

LEO

Low Earth Orbit

Inclination

83.0

Latest

Satellite identification and parameters

Extended collection of information and parameters for COSMOS 1275 DEB.

Object identification

Identified? True

Debris? True

Object name: COSMOS 1275 DEB

International designator: 1981-053Z

Object number (NORAD): 12669

Object ID (CCSDS): 12669

Country: COMMONWEALTH OF INDEPENDENT STATES (CIS)

Current information (Y/N): Y

RCS size: SMALL

Orbital parameters

Period: 102.581 minutes

Inclination: 82.9991 deg

SMA: 7258.914 km

Apoapsis: 933.448 km

Periapsis: 828.109 km

RAAN: 314.9801 deg

Eccentricy: 0.00725582

Argument of periapsis: 341.3854 deg

Mean anomaly: 192.8472 deg

Mean motion: 14.03767861 rev/day

Mean motion (dot): 0.00003332 rev/day2

B* drag term: 0.0020592862 1/REarth

Two-line elements (TLE)

Creation date: Dec. 14, 2025, 3:07 a.m.

Reference frame: TEME

Reference center: EARTH

Epoch: Dec. 13, 2025, 4:08 p.m. UTC

TLE line 0: 0 COSMOS 1275 DEB

TLE line 1: 1 12669U 81053Z 25347.67271834 .00003332 00000-0 20593-2 0 9992

TLE line 2: 2 12669 82.9991 314.9801 0072558 341.3854 192.8472 14.03767861238677

Live tracking on map

Real-time ground track for satellite COSMOS 1275 DEB.

In-orbit conjunctions

A list of the most updated potential collisions computed for object COSMOS 1275 DEB.

Target Orbit TCA Probability of collision Miss distance Type
METEOR 2-3 LEO 2024-11-30 06:09:56 0.0005077323 131.0 (m) PAYLOAD
METEOR 2-11 DEB LEO 2024-09-27 11:45:25 0.0005174199 324.0 (m) DEBRIS

Associated space launch

Navigation satellite providing location information for the Tsiklon-B navigation system

COSMOS 1275 DEB was lifted into orbit during the mission ‘Kosmos-3M | Parus 27’, on board a Kosmos-3M space rocket.

The launch took place on June 4, 1981, 3:41 p.m. from 132/2.

For more information about the launch, click the button.

Launch to space Kosmos-3M | Parus 27
Kosmos-3M | Parus 27

Agency: N/A

Status: Launch Successful

Launch date: June 4, 1981, 3:41 p.m. UTC

Rocket: Kosmos-3M

Launch pad: 132/2

Location: Plesetsk Cosmodrome, Russian Federation

...

Latest news about this satellite

There are no fresh news available about this satellite. Check back as we update our databases every day.


Newsletter sign-up

Weekly statistics, charts and insights to help you stay on top of the space industry.